Auburn, AL

8:39 PM CDT on September 28, 2016 (GMT -0500)
Auburn-opelika-pitts

Weather History for KAUO - September, 2013

Change the Weather History Date:

Saturday, September 21, 2013

  Actual Average Record
Temperature  
Mean Temperature 69 °F -  
Max Temperature 73 °F - 95 °F (1978)
Min Temperature 64 °F - 47 °F (1984)
Degree Days  
Heating Degree Days 0    
Month to date heating degree days 0  
Since 1 July heating degree days 0  
Cooling Degree Days 4    
Month to date cooling degree days 237  
Year to date cooling degree days 1530  
Growing Degree Days 18 (Base 50)    
Moisture  
Dew Point 66 °F    
Average Humidity 88    
Maximum Humidity 94    
Minimum Humidity 73    
Precipitation  
Precipitation 1.05 in - 2.04 in (1957)
Month to date precipitation 2.91  
Year to date precipitation 38.62  
Sea Level Pressure  
Sea Level Pressure 29.84 in    
Wind  
Wind Speed 7 mph (South)    
Max Wind Speed 16 mph    
Max Gust Speed 18 mph    
Visibility 10 miles    
Events      
T = Trace of Precipitation, MM = Missing Value Source: NWS Daily Summary

Daily Weather History Graph

Daily Weather History Graph

Search for Another Location

Airport or City:

Trip Planner

Search our weather history database for the weather conditions in past years. The results will help you decide how hot, cold, wet, or windy it might be!

Date:

Astronomy

Sep. 21, 2013 Rise Set
Actual Time 6:29 AM CDT 6:39 PM CDT
Civil Twilight 6:04 AM CDT 7:03 PM CDT
Nautical Twilight 5:36 AM CDT 7:32 PM CDT
Astronomical Twilight 5:07 AM CDT 8:01 PM CDT
Moon 8:00 PM CDT (9/21) 8:37 AM CDT (9/21)
Length of Visible Light 12h 59m
Length of Day
12h 09m
Waning Gibbous, 94% of the Moon is Illuminated
Sep 21
Waning Gibbous
Sep 26
Last Quarter
Oct 4
New
Oct 11
First Quarter
Oct 18
Full

Hourly Weather History & Observations

Time (CDT) Temp. Dew Point Humidity Pressure Visibility Wind Dir Wind Speed Gust Speed Precip Events Conditions
12:15 AM 71.6 °F 62.6 °F 73% 29.94 in 10.0 mi SSE 5.8 mph - N/A   Partly Cloudy
12:35 AM 71.6 °F 62.6 °F 73% 29.93 in 10.0 mi South 5.8 mph - N/A   Clear
12:55 AM 69.8 °F 62.6 °F 78% 29.93 in 10.0 mi South 5.8 mph - N/A   Clear
1:15 AM 69.8 °F 64.4 °F 83% 29.92 in 10.0 mi South 5.8 mph - N/A   Clear
1:35 AM 71.6 °F 64.4 °F 78% 29.92 in 10.0 mi South 5.8 mph - N/A   Scattered Clouds
1:55 AM 69.8 °F 64.4 °F 83% 29.90 in 10.0 mi SSE 6.9 mph - N/A   Partly Cloudy
2:15 AM 69.8 °F 64.4 °F 83% 29.90 in 10.0 mi SSE 6.9 mph - N/A   Clear
2:35 AM 69.8 °F 64.4 °F 83% 29.89 in 10.0 mi SSE 5.8 mph - N/A   Partly Cloudy
2:55 AM 69.8 °F 64.4 °F 83% 29.89 in 10.0 mi South 5.8 mph - N/A   Mostly Cloudy
3:15 AM 69.8 °F 64.4 °F 83% 29.88 in 10.0 mi SSE 4.6 mph - N/A   Overcast
3:35 AM 69.8 °F 64.4 °F 83% 29.88 in 10.0 mi SSE 5.8 mph - N/A   Overcast
3:55 AM 69.8 °F 64.4 °F 83% 29.87 in 10.0 mi SSE 5.8 mph - N/A   Overcast
4:15 AM 69.8 °F 64.4 °F 83% 29.87 in 10.0 mi SSE 6.9 mph - N/A   Scattered Clouds
4:35 AM 69.8 °F 64.4 °F 83% 29.87 in 10.0 mi South 6.9 mph - N/A   Clear
4:55 AM 69.8 °F 64.4 °F 83% 29.87 in 10.0 mi South 5.8 mph - N/A   Clear
5:15 AM 69.8 °F 66.2 °F 88% 29.87 in 10.0 mi South 6.9 mph - N/A   Clear
5:35 AM 69.8 °F 66.2 °F 88% 29.87 in 10.0 mi SSE 6.9 mph - N/A   Clear
5:55 AM 69.8 °F 66.2 °F 88% 29.87 in 10.0 mi South 5.8 mph - N/A   Clear
6:15 AM 69.8 °F 66.2 °F 88% 29.87 in 10.0 mi South 6.9 mph - N/A   Clear
6:35 AM 69.8 °F 66.2 °F 88% 29.87 in 10.0 mi SSE 6.9 mph - N/A   Clear
6:55 AM 69.8 °F 66.2 °F 88% 29.87 in 10.0 mi South 8.1 mph - N/A   Partly Cloudy
7:15 AM 69.8 °F 66.2 °F 88% 29.87 in 10.0 mi South 9.2 mph - N/A   Scattered Clouds
7:35 AM 69.8 °F 66.2 °F 88% 29.87 in 10.0 mi SSE 9.2 mph - N/A   Mostly Cloudy
7:55 AM 69.8 °F 66.2 °F 88% 29.87 in 10.0 mi SE 8.1 mph - N/A   Overcast
8:15 AM 69.8 °F 66.2 °F 88% 29.87 in 10.0 mi South 10.4 mph - N/A   Overcast
8:35 AM 69.8 °F 66.2 °F 88% 29.87 in 5.0 mi South 11.5 mph - N/A   Overcast
8:55 AM 69.8 °F 66.2 °F 88% 29.87 in 10.0 mi South 10.4 mph - N/A   Overcast
9:15 AM 69.8 °F 66.2 °F 88% 29.87 in 6.0 mi South 10.4 mph - 0.02 in   Overcast
9:35 AM 69.8 °F 68.0 °F 94% 29.87 in 10.0 mi South 11.5 mph - 0.02 in   Overcast
9:55 AM 71.6 °F 68.0 °F 88% 29.86 in 9.0 mi South 11.5 mph - 0.04 in   Overcast
10:15 AM 69.8 °F 68.0 °F 94% 29.86 in 10.0 mi SSE 10.4 mph - 0.01 in   Overcast
10:35 AM 71.6 °F 68.0 °F 88% 29.86 in 10.0 mi South 12.7 mph - 0.01 in   Overcast
10:55 AM 71.6 °F 68.0 °F 88% 29.85 in 10.0 mi South 12.7 mph - 0.01 in   Overcast
11:15 AM 71.6 °F 69.8 °F 94% 29.84 in 10.0 mi South 11.5 mph - N/A   Overcast
11:35 AM 71.6 °F 69.8 °F 94% 29.84 in 10.0 mi South 12.7 mph - N/A   Overcast
11:55 AM 73.4 °F 69.8 °F 88% 29.83 in 10.0 mi South 16.1 mph - N/A   Overcast
12:15 PM 71.6 °F 69.8 °F 94% 29.83 in 10.0 mi SSW 11.5 mph - 0.01 in   Overcast
12:35 PM 73.4 °F 69.8 °F 88% 29.82 in 10.0 mi SSW 10.4 mph 17.3 mph 0.02 in   Overcast
12:55 PM 73.4 °F 69.8 °F 88% 29.82 in 10.0 mi SSW 11.5 mph - 0.02 in   Overcast
1:15 PM 71.6 °F 69.8 °F 94% 29.82 in 10.0 mi SW 11.5 mph - 0.06 in   Overcast
1:35 PM 69.8 °F 66.2 °F 88% 29.82 in 6.0 mi WSW 12.7 mph 18.4 mph 0.31 in   Mostly Cloudy
1:55 PM 69.8 °F 66.2 °F 88% 29.81 in 10.0 mi SW 8.1 mph - 0.35 in   Overcast
2:15 PM 71.6 °F 68.0 °F 88% 29.80 in 10.0 mi WSW 6.9 mph - 0.01 in   Scattered Clouds
2:35 PM 71.6 °F 68.0 °F 88% 29.80 in 10.0 mi WSW 9.2 mph - 0.02 in   Scattered Clouds
2:55 PM 71.6 °F 69.8 °F 94% 29.80 in 10.0 mi West 6.9 mph - 0.03 in   Mostly Cloudy
3:16 PM 71.6 °F 68.0 °F 88% 29.79 in 5.0 mi West 5.8 mph - 0.31 in   Overcast
3:35 PM 69.8 °F 68.0 °F 94% 29.79 in 10.0 mi SW 6.9 mph - 0.38 in   Mostly Cloudy
3:55 PM 69.8 °F 68.0 °F 94% 29.79 in 10.0 mi SSW 6.9 mph - 0.45 in   Overcast
4:15 PM 69.8 °F 66.2 °F 88% 29.79 in 10.0 mi SW 5.8 mph - 0.04 in   Overcast
4:35 PM 69.8 °F 66.2 °F 88% 29.79 in 10.0 mi SW 5.8 mph - 0.06 in   Overcast
4:55 PM 69.8 °F 68.0 °F 94% 29.79 in 9.0 mi WNW 3.5 mph - 0.09 in   Overcast
5:15 PM 69.8 °F 68.0 °F 94% 29.79 in 10.0 mi NNW 3.5 mph - 0.02 in   Overcast
5:35 PM 69.8 °F 66.2 °F 88% 29.78 in 10.0 mi North 4.6 mph - 0.04 in   Overcast
5:55 PM 69.8 °F 66.2 °F 88% 29.78 in 10.0 mi North 4.6 mph - 0.04 in   Overcast
6:15 PM 69.8 °F 66.2 °F 88% 29.78 in 10.0 mi NNE 4.6 mph - 0.01 in   Overcast
6:35 PM 69.8 °F 66.2 °F 88% 29.78 in 10.0 mi NNE 3.5 mph - 0.02 in   Mostly Cloudy
6:55 PM 69.8 °F 66.2 °F 88% 29.78 in 10.0 mi North 4.6 mph - 0.02 in   Overcast
7:15 PM 68.0 °F 66.2 °F 94% 29.79 in 10.0 mi North 6.9 mph - N/A   Overcast
7:35 PM 68.0 °F 66.2 °F 94% 29.78 in 10.0 mi NNE 4.6 mph - N/A   Overcast
7:55 PM 68.0 °F 64.4 °F 88% 29.79 in 10.0 mi North 4.6 mph - N/A   Overcast
8:15 PM 66.2 °F 64.4 °F 94% 29.80 in 10.0 mi North 4.6 mph - N/A   Overcast
8:35 PM 66.2 °F 64.4 °F 94% 29.80 in 10.0 mi North 10.4 mph - N/A   Overcast
8:55 PM 66.2 °F 64.4 °F 94% 29.81 in 10.0 mi NNE 5.8 mph - N/A   Overcast
9:15 PM 66.2 °F 64.4 °F 94% 29.81 in 10.0 mi North 8.1 mph - N/A   Overcast
9:35 PM 66.2 °F 62.6 °F 88% 29.81 in 10.0 mi North 6.9 mph - N/A   Overcast
9:55 PM 66.2 °F 62.6 °F 88% 29.81 in 10.0 mi North 5.8 mph - N/A   Overcast
10:15 PM 66.2 °F 62.6 °F 88% 29.81 in 10.0 mi North 8.1 mph - N/A   Overcast
10:35 PM 64.4 °F 62.6 °F 94% 29.81 in 10.0 mi North 4.6 mph - N/A   Overcast
10:55 PM 64.4 °F 62.6 °F 94% 29.80 in 10.0 mi NNE 5.8 mph - N/A   Mostly Cloudy
11:15 PM 64.4 °F 62.6 °F 94% 29.80 in 10.0 mi North 4.6 mph - N/A   Mostly Cloudy
11:55 PM 64.4 °F 62.6 °F 94% 29.80 in 10.0 mi North 5.8 mph - N/A   Scattered Clouds